www.pogodaiklimat.ru

ПОГОДА в Большерецке

  • Прогноз погоды в Большерецке
  • Монитор погоды в Большерецке
  • Климат города

АРХИВ ПОГОДЫ в Большерецке

Время (UTC), дата Ветер
(напр.,м/с)
 
Видим.   Явления Облачность Т
(С)
Тd
(С)
f
(%)
Тe
(С)
Тes
(С)
Комфортность P
(гПа)
Po
(гПа)
Тmin
(С)
Tmax
(С)
R
(мм)
S
(см)
03 11.01 В 12-20
{20}
50 км позёмок {метель} 9/6 600 м
[Sc Ac trans]
+2.0 -2.6 72 -6 -6 993.6 989.9
06 11.01 В 14-21
{26}
20 км позёмок {метель} 9/6 600 м
[Sc Ac trans]
+1.2 -0.7 87 -8 -8 992.2 988.5
09 11.01 В 18-25
{29}
20 км позёмок {метель} 9/8 600 м
[Sc Ac trans]
+1.4 -1.8 79 -8 -8 991.1 987.4 +2.2
12 11.01 В 14-20
{29}
20 км {метель} 10/10 600 м
[Sc]
+2.8 -2.0 71 -5 -5 994.6 990.9
15 11.01 Ю 4
{23}
10 км слабый ливневой снег 10/10 600 м
[Cb cap]
-1.8 -2.0 99 -8 -8 997.0 993.3
18 11.01 ЮЗ 4 1000 м ливневой снег 10/10 600 м
[Cb cap]
-3.3 -3.4 99 -10 -10 998.3 994.5
21 11.01 З 5 1000 м ливневой снег 10/10 600 м
[Cb cap]
-4.4 -4.3 100 -12 -12 999.6 995.8 -4.4 17 83
00 12.01 З 5 1000 м ливневой снег 10/10 600 м
[Cb cap]
-4.8 -5.1 98 -12 -12 1001.6 997.8 -4.8
03 12.01 С 2 1000 м ливневой снег 10/10 600 м
[Cb cap]
-5.1 -5.4 98 -10 -10 1003.7 999.9
06 12.01 В 2 2000 м слабый ливневой снег 9/9 600 м
[Cb cap]
-5.7 -6.0 98 -10 -10 1005.6 1001.7
09 12.01 СВ 1 20 км в посл. час ливневой снег 9/8 600 м
[Cb cap Ac trans]
-7.2 -7.7 96 -10 -10 1006.8 1002.9 -4.4 15
12 12.01 СВ 3 20 км {ливн. осадки} 8/8 600 м
[Sc]
-7.6 -8.1 96 -13 -13 1007.9 1004.0
15 12.01 В 3 20 км 8/8 600 м
[Sc]
-10.0 -10.8 94 -16 -16 1009.2 1005.3
18 12.01 СВ 2 20 км 4/4 600 м
[Sc]
-12.5 -13.5 92 -17 -17 1010.9 1007.0
21 12.01 СВ 3 20 км 4/4 600 м
[Sc]
-12.5 -13.5 92 -19 -19 1010.9 1006.9 -13.1 86
00 13.01 СВ 5 50 км 9/8 600 м
[Sc Ac trans]
-6.9 -7.5 95 -14 -14 1010.5 1006.6
03 13.01 С 3 50 км 9/9 600 м
[Sc]
-3.4 -4.5 92 -9 -9 1009.3 1005.4
06 13.01 СВ 3 50 км 8/8 600 м
[Sc]
-0.9 -4.1 79 -6 -6 1009.2 1005.4
09 13.01 СВ 5 20 км 9/9 600 м
[Sc]
-0.5 -4.1 77 -7 -7 1008.8 1005.0 +0.2
12 13.01 В 7-10
{12}
20 км 9/9 600 м
[Sc]
+0.7 -3.4 74 -6 -6 1008.9 1005.1
15 13.01 В 6-10
{12}
20 км 9/9 600 м
[Sc]
+0.8 -2.8 77 -5 -5 1009.0 1005.3
18 13.01 В 7-10
{14}
20 км позёмок {метель} 9/9 600 м
[Sc]
+0.6 -3.0 77 -6 -6 1010.1 1006.3
21 13.01 В 9-10
{19}
50 км позёмок {метель} 9/9 600 м
[Sc]
+0.3 -5.4 66 -7 -7 1011.2 1007.4 -2.2 77
00 14.01 В 10-12
{18}
50 км позёмок {метель} 9/9 600 м
[Sc]
-0.0 -6.6 61 -8 -8 1013.1 1009.4
03 14.01 В 11-16
{16}
50 км позёмок {метель} 10/10 600 м
[Sc]
-0.7 -7.2 61 -9 -9 1012.8 1009.0
06 14.01 В 8-13
{18}
50 км позёмок {метель} 10/10 600 м
[Sc]
-1.7 -8.2 61 -9 -9 1015.0 1011.2
09 14.01 В 7-10
{15}
20 км позёмок {метель} 3/3 600 м
[Sc]
-2.8 -9.8 59 -10 -10 1016.2 1012.3 +0.3
12 14.01 В 6-10
{13}
20 км позёмок {метель} 3/3 600 м
[Sc]
-3.8 -10.7 59 -11 -11 1017.5 1013.5
15 14.01 СВ 7-10
{10}
20 км позёмок {метель} 3/3 600 м
[Sc]
-5.0 -12.2 57 -13 -13 1017.6 1013.7
18 14.01 СВ 5
{10}
20 км {метель} ясно -6.4 -13.1 59 -13 -13 1017.6 1013.7
21 14.01 СВ 5 50 км ясно -7.5 -13.9 60 -15 -15 1017.2 1013.3 -7.9 70
00 15.01 СВ 4 50 км 8/3 600 м
[Sc Ac trans Ci]
-6.7 -13.4 59 -13 -13 1017.5 1013.6 -8.0
03 15.01 В 4 50 км 8/3 600 м
[Sc Ac trans]
-4.6 -12.5 54 -10 -10 1015.3 1011.4
06 15.01 СВ 4 50 км 9/5 600 м
[Sc Ci]
-6.2 -13.1 58 -12 -12 1015.4 1011.5
09 15.01 СВ 4 20 км 3/3 600 м
[Sc]
-11.0 -15.3 71 -18 -18 1015.1 1011.2 -4.3
12 15.01 СВ 5 20 км 3/3 600 м
[Sc]
-11.7 -15.3 75 -20 -20 1014.9 1010.9
15 15.01 СВ 4 20 км 3/3 600 м
[Sc]
-13.7 -16.2 81 -21 -21 1013.8 1009.8
18 15.01 СВ 5 20 км ясно -13.0 -16.2 77 -21 -21 1013.7 1009.7
21 15.01 СВ 4 20 км 3/0
[Ac lent]
-12.8 -16.4 74 -20 -20 1013.3 1009.4 -14.4 69
00 16.01 СВ 5 50 км 3/0
[Ac lent]
-12.5 -16.3 73 -21 -20 1013.5 1009.5
03 16.01 СВ 3 50 км 4/0
[Ci fib]
-8.5 -14.5 62 -14 -13 1012.1 1008.2
06 16.01 С 5 50 км 4/0
[Ci fib]
-13.1 -17.1 72 -21 -21 1012.1 1008.1
09 16.01 СВ 5 20 км ясно -12.5 -17.2 68 -21 -21 1012.0 1008.0 -8.2
12 16.01 СВ 4 20 км ясно -15.2 -18.5 76 -23 -23 1011.7 1007.7
15 16.01 СВ 5 20 км 8/8 600 м
[Sc]
-16.1 -19.3 76 -25 -25 1010.9 1006.9
18 16.01 СВ 2 20 км 9/9 600 м
[Sc]
-15.3 -18.5 76 -20 -20 1010.4 1006.4
21 16.01 С 3 50 км 6/3 600 м
[Sc Ci fib]
-20.1 -22.1 84 -28 -28 1010.7 1006.6 -20.7 68
00 17.01 СВ 5 50 км 8/3 600 м
[Sc Ac cast]
-16.0 -19.0 78 -25 -25 1011.3 1007.3 -22.2
03 17.01 С 5 50 км 6/0
[Ac cast]
-16.8 -20.0 76 -26 -26 1010.4 1006.4
06 17.01 СВ 6 50 км 9/0
[Ac trans]
-12.0 -17.6 63 -21 -21 1011.7 1007.8
09 17.01 СВ 5-10
{10}
20 км 9/4 600 м
[Sc Ac trans]
-14.8 -20.4 62 -24 -24 1013.9 1009.9 -11.6
12 17.01 СВ 5
{10}
20 км 9/4 600 м
[Sc Ac trans]
-16.6 -21.2 67 -26 -26 1014.7 1010.7
15 17.01 СВ 4 20 км 6/0
[Ac trans]
-15.9 -20.8 66 -24 -24 1015.0 1011.0
18 17.01 СВ 4 20 км 6/0
[Ac trans]
-16.9 -21.6 67 -25 -25 1015.6 1011.5
21 17.01 СВ 4 50 км ясно -19.1 -22.9 72 -28 -28 1016.3 1012.2 -19.1 68
00 18.01 СВ 4 50 км ясно -18.7 -23.0 69 -27 -26 1016.7 1012.6 -20.9

 

Местоположение метеостанции Большерецк (Камчатский край, Россия): широта 52.83 долгота 156.30 высота над уровнем моря 30 м.

В архиве по умолчанию представлена погода в Большерецке за последнюю неделю. Архивные данные за месяц целиком и за предыдущие месяцы, начиная с января 2011 года, Вы можете получить, выбрав интересующий диапазон дат из раскрывающегося списка и нажав кнопку "Ввод!".

Внимание! Время в таблицах - всемирное. Для получения местного времени необходимо прибавить поправку, которая в Большерецке равна 12 ч.

Ветер - указаны скорость ветра в м/с - средняя за 10 мин, порывы в срок и между сроками (в фигурных скобках) и направление, откуда дует ветер: С - северный, СВ - северо-восточный, В - восточный, ЮВ - юго-восточный, Ю - южный, ЮЗ - юго-западный, З - западный, СЗ - северо-западный.
Видимость - горизонтальная дальность видимости в метрах или километрах. При видимости от 1 до 10 км при отсутствии осадков обычно наблюдается дымка, при ухудшении видимости до 1 км и менее - туман. В сухую погоду видимость может ухудшаться дымом, пылью или мглою.
Явления - указаны атмосферные явления, наблюдавшиеся в срок или в последний час перед сроком; фигурными скобками обозначены явления, наблюдавшиеся между сроками (за 1-3 часа до срока); квадратными скобками обозначены град или гололедные отложения с указанием их диаметра в мм.
Облачность - указаны через наклонную черту общая и нижняя облачность в баллах и высота нижней границы облаков в метрах; квадратными скобками обозначены формы облаков: Ci - перистые, Cs - перисто-слоистые, Cc - перисто-кучевые, Ac - высококучевые, As - высокослоистые, Sc - слоисто-кучевые, Ns - слоисто-дождевые, Cu - кучевые, Cb - кучево-дождевые. Подробнее классификацию облаков см. в Атласе облаков (PDF).
T - Температура воздуха - температура, измеренная на высоте 2 м над землей.
Td - Температура точки росы - температура, при понижении до которой содержащийся в воздухе водяной пар достигнет насыщения.
f - Относительная влажность воздуха - влажноcть воздуха, измеренная на высоте 2 м над землей.
Te - Эффективная температура - температура, которую ощущает одетый по сезону человек в тени. Характеристика душности погоды. При расчете учитывается влияние влажности воздуха и скорости ветра на теплоощущения человека.
Tes - Эффективная температура на солнце - температура, которую ощущает человек, с поправкой на солнечный нагрев. Характеристика знойности погоды. Зависит от высоты солнца над горизонтом, облачности и скорости ветра. Ночью, в пасмурную погоду, а также при ветре 12 м/с и более поправка равна нулю.
P - Атмосферное давление - приведенное к уровню моря атмосферное давление.
Po - Атмосферное давление - измеренное на уровне метеостанции атмосферное давление.
Tmin - Минимальная температура - минимум температуры воздуха на высоте 2 м над землей.
Tmax - Максимальная температура - максимум температуры воздуха на высоте 2 м над землей.
R - Количество осадков - Количество выпавших осадков, мм. При наведении курсора мыши на число - период времени, за который выпало указанное количество осадков.
S - Снежный покров - Высота снежного покрова, см. При наведении курсора мыши на число - состояние снежного покрова и степень покрытия местности в баллах.